This is the latest recevied weather packets stored in our database for station/object AA4XD. If no packets are shown the sender has not sent any weather packets the latest 10 day(s).
| Time | Temp. | Humidity | Pressure | Rain* | Wind** | Luminosity | Snow |
|---|---|---|---|---|---|---|---|
| 1777947475 | 20.56° C | 65% | 1015.1 hPa | 0 mm | - | 0 W/m² | - |
| 1777947172 | 20.56° C | 64% | 1015 hPa | 0 mm | - | 0 W/m² | - |
| 1777946867 | 20.56° C | 64% | 1015.2 hPa | 0 mm | - | 0 W/m² | - |
| 1777946562 | 20.56° C | 64% | 1015.1 hPa | 0 mm | - | 0 W/m² | - |
| 1777946260 | 20.56° C | 62% | 1014.9 hPa | 0 mm | - | 0 W/m² | - |
| 1777945957 | 20.56° C | 62% | 1014.9 hPa | 0 mm | - | 0 W/m² | - |
| 1777945654 | 20.56° C | 61% | 1014.7 hPa | 0 mm | - | 0 W/m² | - |
| 1777945351 | 20.56° C | 61% | 1014.8 hPa | 0 mm | - | 0 W/m² | - |
| 1777945048 | 20.56° C | 62% | 1014.8 hPa | 0 mm | - | 0 W/m² | - |
| 1777944745 | 20.56° C | 63% | 1014.8 hPa | 0 mm | - | 0 W/m² | - |
| 1777944443 | 20.56° C | 63% | 1014.5 hPa | 0 mm | - | 0 W/m² | - |
| 1777944140 | 21.11° C | 63% | 1014.5 hPa | 0 mm | - | 0 W/m² | - |
| 1777943836 | 21.11° C | 62% | 1014.7 hPa | 0 mm | - | 0 W/m² | - |
| 1777943534 | 21.11° C | 60% | 1014.5 hPa | 0 mm | - | 0 W/m² | - |
| 1777943228 | 21.11° C | 60% | 1014.5 hPa | 0 mm | - | 0 W/m² | - |
| 1777942926 | 21.11° C | 59% | 1014.3 hPa | 0 mm | - | 0 W/m² | - |
| 1777942622 | 21.11° C | 59% | 1014.3 hPa | 0 mm | - | 0 W/m² | - |
| 1777942319 | 21.67° C | 59% | 1014.1 hPa | 0 mm | - | 0 W/m² | - |
| 1777942016 | 21.67° C | 57% | 1014.1 hPa | 0 mm | - | 0 W/m² | - |
| 1777941712 | 21.67° C | 57% | 1014 hPa | 0 mm | - | 0 W/m² | - |
| 1777941410 | 22.22° C | 57% | 1013.8 hPa | 0 mm | - | 0 W/m² | - |
| 1777941107 | 22.22° C | 55% | 1014 hPa | 0 mm | - | 0 W/m² | - |
| 1777940803 | 22.22° C | 57% | 1014.1 hPa | 0 mm | - | 0 W/m² | - |
| 1777940501 | 22.78° C | 54% | 1013.8 hPa | 0 mm | - | 0 W/m² | - |
| 1777940198 | 22.78° C | 54% | 1013.7 hPa | 0 mm | - | 1 W/m² | - |
* Rain latest hour (hover to see other rain measurements)
** Current wind speed in m/s (hover to see current wind gust speed)